Mackinac Island, MI (49757)

2:48 AM EST on February 13, 2016 (GMT -0500)
Mackinac Island | | Change Station
CLOSE
Current Station
Airport
Location: Mackinac Island,
Elevation: 741 ft
Nearby Weather Stations
Active Advisory: Winter Weather Advisory

Elev 741 ft 45.87 °N, 84.64 °W | Updated 12 minutes ago

Scattered Clouds
Scattered Clouds
-11 °F
Feels Like -28 °F
N
8
Wind Variable Wind from NE

Today
High -- | Low -- °F
--% Chance of Precip.
Yesterday
High -- | Low -- °F
Precip. -- in
Pressure 30.34 in
Visibility 10.0 miles
Clouds Scattered Clouds 3500 ft
Windchill -28 °F
Dew Point -21 °F
Humidity 63%
Rainfall 0.00 in
Snow Depth Not available.
7:44 AM 6:01 PM
Waxing Crescent, 28% visible
METAR KMCD 130736Z AUTO 04007KT 10SM SCT035 M24/M29 A3034 RMK AO2 T12401293
Pressure 30.34 in
Visibility 10.0 miles
Clouds Scattered Clouds 3500 ft
Windchill -28 °F
Dew Point -21 °F
Humidity 63%
Rainfall 0.00 in
Snow Depth Not available.
7:44 AM 6:01 PM
Waxing Crescent, 28% visible
METAR KMCD 130736Z AUTO 04007KT 10SM SCT035 M24/M29 A3034 RMK AO2 T12401293

10-Day Weather Forecast

Almanac

Astronomy

Feb. 13, 2016 Rise Set
Actual Time
Civil Twilight
Nautical Twilight
Astronomical Twilight
Moon
Length of Visible Light
Length of Day
Tomorrow will be .
, % of the Moon is Illuminated

Today's Extremes

State Highs State Lows

Community

WunderPhotos

Upload Photos

1,892,526 photos uploaded!

WunderBlog® & News

Nearby

Air Quality

  Air Quality AQ Index Pollutant
Not available.

Snow Depth

Station Depth Elevation

Earthquake Activity

City Distance Mag. Time & Date
Minimum magnitude displayed is 2.5.

Coastal Water Temperatures

Place Temperature

Stations

Nearby Weather Stations

Station Location Temp. Windchill Dew Point Humidity Wind Precip. Elev Updated Type
                   

Watches & Warnings

Winter Weather Advisory
Issued: 9:14 PM EST Feb. 12, 2016 – National Weather Service

... Winter Weather Advisory remains in effect until noon EST
Saturday...

* lake effect snow showers will continue overnight... primarily
west of Interstate 75.

* Total nighttime snow accumulations of 1 to 3 inches can be
expected in western Chippewa and Mackinac counties.

* Gusty northwest winds will result in blowing and drifting snow.

* Look for periods of very poor visibility.

* Wind chills will approach 30 below zero tonight... with the
coldest readings in the St Marys River valley.

Precautionary/preparedness actions...

A Winter Weather Advisory for snow means periods of snow will
cause primarily travel difficulties. Be prepared for snow covered
roads and limited visibilities... and use caution while driving.
For the latest Road conditions... go to the mdot website at
Michigan.Gov.

Extreme wind chills may result in frostbite and lead to
hypothermia if precautions are not taken. If you must venture
outdoors... make sure you wear a hat and gloves.